Wind_Speed
32 31 28 27 25 23 21 19 17 16 14 13 12 12 11 10 10 10 9 9 8 7 7 6 6 6 5 5 4 4 4 4 3 3 3 3 3 4 4 6 7 7 8
33 32 31 29 28 26 24 22 20 19 17 16 14 13 13 12 12 11 11 10 9 9 8 7 7 6 6 6 6 5 5 5 5 5 5 4 5 5 6 7 7 8 9
34 33 32 31 30 29 27 25 23 21 20 18 17 15 15 14 13 13 12 12 11 10 9 9 8 8 7 7 7 7 7 7 7 7 6 6 6 7 7 8 9 9 10
35 34 33 33 33 31 29 27 26 24 22 21 19 18 16 16 15 14 14 13 13 12 11 11 10 9 9 9 9 9 9 8 8 8 8 8 8 8 9 10 10 11 12
35 34 34 34 34 33 32 30 28 27 25 23 22 20 19 17 17 16 15 15 14 13 13 12 12 11 11 10 10 11 11 10 10 10 10 10 10 10 11 11 12 13 13
37 35 34 34 35 35 34 33 31 29 27 26 24 22 21 20 19 18 17 17 16 15 15 14 14 13 13 12 12 12 12 12 12 12 11 12 12 12 13 13 14 14 15
39 37 36 35 35 35 36 35 33 32 30 28 26 24 23 22 21 20 19 19 18 17 17 16 16 15 15 15 14 14 14 14 14 13 13 13 14 14 14 15 16 16 17
40 40 38 38 37 36 36 36 35 34 32 31 29 27 25 24 23 23 22 21 20 19 19 18 17 17 17 17 16 16 16 15 15 15 15 15 16 16 16 17 17 18 19
42 41 40 39 39 38 38 38 37 36 34 33 32 30 28 26 25 24 23 22 21 21 20 20 19 19 18 18 18 18 17 17 17 17 17 17 18 18 18 19 20 20 21
44 43 42 41 40 40 39 39 39 38 36 35 34 32 30 28 27 26 25 24 23 22 22 21 21 20 20 20 20 20 20 19 19 19 19 19 20 20 21 21 22 22 23
45 45 44 43 43 42 41 40 40 39 39 37 36 34 33 31 29 28 27 25 25 24 24 23 23 22 22 22 22 22 22 21 21 21 22 22 22 22 23 23 24 24 24
46 47 45 43 44 44 43 41 41 41 40 40 38 36 35 33 32 30 28 27 27 27 26 26 25 24 24 24 24 24 24 24 24 24 24 24 24 24 25 25 25 26 26
46 46 47 45 44 45 45 44 42 42 42 41 40 39 37 36 34 32 31 30 29 29 28 28 27 27 26 26 26 26 26 26 26 26 25 26 26 26 26 27 27 27 28
47 47 46 47 46 46 46 46 44 42 42 42 41 40 39 38 37 35 33 32 32 31 30 30 29 29 29 28 28 27 27 28 28 28 28 28 29 29 29 29 29 29 29
46 47 48 47 46 46 46 48 46 44 43 42 43 42 41 40 39 37 36 35 34 34 33 32 32 31 31 30 29 29 30 30 30 30 30 30 30 31 31 31 31 31 31
46 46 47 47 47 47 48 49 48 47 45 44 43 43 43 42 41 40 38 37 35 35 34 34 33 33 33 33 32 32 32 32 32 32 32 32 32 32 32 32 32 32 32
46 46 46 47 48 48 47 48 49 49 48 46 45 44 43 43 42 41 40 39 37 36 35 35 35 35 34 34 34 34 34 34 34 33 34 34 34 34 33 33 32 32 33
46 46 47 46 48 48 48 48 48 48 48 47 45 44 44 44 42 42 41 40 38 37 36 36 35 35 34 35 35 36 36 35 35 36 36 35 35 35 34 34 34 34 35
46 46 47 47 48 49 48 48 48 47 46 46 46 45 45 44 43 43 42 41 40 39 39 38 37 36 36 37 37 37 37 37 37 37 36 36 36 36 36 36 37 37 37
43 44 45 45 45 45 45 44 46 47 47 45 45 44 44 44 44 43 42 42 42 41 41 40 39 38 39 39 39 40 39 39 39 39 39 39 39 39 40 40 40 39 39
41 42 44 43 43 43 42 42 43 44 45 45 43 43 42 43 44 44 42 42 42 42 42 42 41 40 40 41 42 42 41 41 41 42 42 42 42 42 42 42 42 41 40
38 39 39 40 42 43 44 45 44 43 43 44 44 42 41 42 43 43 43 42 43 43 44 44 43 42 43 43 43 43 43 43 43 44 44 44 44 44 43 43 43 42 41
35 37 37 38 40 42 42 43 42 41 41 43 43 43 40 41 41 41 42 42 43 43 44 45 44 44 45 45 45 46 45 44 44 45 45 45 45 46 45 45 44 43 43
29 32 33 34 36 37 40 40 39 38 40 39 39 40 40 40 40 41 41 41 42 43 45 46 46 46 46 47 47 46 47 47 47 47 47 47 47 46 45 45 45 44 44
23 27 29 31 31 31 34 36 36 35 37 38 38 38 39 39 39 40 40 42 43 44 45 46 47 47 48 49 49 48 48 49 49 49 49 48 46 46 46 46 46 46 45
19 23 26 29 29 29 30 32 33 34 35 37 38 37 37 38 38 39 40 41 42 43 45 46 47 48 48 49 50 51 50 49 49 49 49 48 47 46 46 47 47 45 45
Wind_Direction
239 238 239 239 240 240 240 241 243 245 248 250 254 259 262 263 266 268 267 271 275 278 282 285 284 282 278 270 263 257 258 261 266 271 279 297 309 321 331 338 342 343 344
240 239 239 239 239 240 240 241 242 244 246 248 250 254 258 260 262 264 265 268 271 273 276 279 278 278 275 270 265 263 263 263 268 270 275 286 296 305 314 323 328 331 333
241 240 239 239 239 240 240 241 242 243 245 247 248 251 255 258 260 260 261 264 266 268 272 275 274 275 274 272 267 266 266 267 271 273 276 282 288 295 304 312 317 320 323
241 240 239 239 240 240 240 241 242 243 245 246 247 250 252 254 257 258 258 261 264 265 267 270 271 272 272 271 268 266 265 267 270 274 278 282 286 292 298 304 309 313 316
241 240 240 239 239 240 240 241 242 242 243 245 246 248 250 252 255 257 258 260 262 263 264 266 268 268 269 270 269 268 266 267 270 273 277 281 285 290 294 299 303 307 309
242 241 240 239 239 239 240 240 241 242 243 244 245 246 248 250 253 256 257 259 261 262 264 265 266 267 268 268 268 269 268 269 271 273 276 279 284 288 292 296 300 303 305
241 241 240 239 239 239 239 240 241 241 242 243 244 245 247 249 251 253 256 258 260 262 264 265 265 266 267 267 268 269 269 270 272 274 276 279 283 286 290 294 297 299 302
241 241 240 239 239 239 239 239 240 241 242 243 244 245 247 249 251 253 255 258 259 261 263 264 265 265 266 267 267 268 268 269 271 274 276 278 281 284 287 291 294 296 299
241 240 240 240 238 238 239 239 240 241 242 242 244 245 247 249 251 253 255 258 259 260 261 263 264 264 265 267 267 267 267 268 270 273 275 277 280 283 286 289 292 295 298
240 240 239 239 238 238 239 239 239 240 241 242 244 245 246 248 250 252 255 257 259 260 261 262 263 264 265 266 267 267 267 268 270 272 274 277 279 283 286 289 291 294 296
239 238 238 239 238 237 237 238 239 239 240 242 243 245 246 248 250 252 253 256 259 260 262 262 262 263 264 266 267 267 267 268 270 272 275 277 279 282 285 288 290 292 294
239 238 236 237 237 237 237 237 238 239 240 242 244 245 246 247 249 251 253 256 258 260 261 262 262 263 264 266 267 267 267 268 269 271 274 276 278 280 283 286 289 291 293
239 238 235 235 236 236 236 237 237 239 240 241 243 244 245 247 248 250 252 255 258 260 261 261 262 263 264 265 267 267 267 268 269 270 272 274 277 280 282 285 287 290 291
237 236 236 234 234 235 236 236 236 237 240 241 242 243 245 247 248 249 251 254 257 259 261 261 262 263 264 265 266 268 268 268 270 271 273 275 277 279 281 284 286 288 290
236 234 233 233 233 233 235 235 235 237 239 240 241 243 245 246 248 250 252 254 256 258 260 261 261 262 264 265 266 268 268 269 271 272 273 274 276 279 280 281 283 286 288
234 233 232 232 232 231 234 235 234 236 239 240 241 243 244 245 247 249 251 253 255 257 258 259 261 262 264 265 266 267 269 270 271 271 272 273 275 278 279 281 282 284 286
230 231 230 230 230 231 232 233 234 236 238 240 242 242 243 244 246 248 250 252 254 256 258 260 261 263 264 265 266 267 267 269 271 272 273 274 276 278 279 280 282 283 285
228 229 230 230 230 230 230 232 235 237 238 238 240 241 242 244 245 248 250 252 253 255 257 259 260 262 265 266 267 268 267 269 270 272 273 275 276 277 278 280 281 283 285
227 229 230 231 230 228 228 231 233 235 237 238 240 241 242 243 245 248 249 251 253 255 257 259 260 262 265 265 266 267 268 269 270 272 274 274 276 277 278 279 281 283 285
227 229 230 229 227 226 228 229 231 233 235 239 240 241 241 242 244 247 249 251 252 254 256 257 259 263 264 264 265 267 268 269 271 272 273 275 276 277 278 279 280 281 282
227 229 229 225 226 227 229 227 230 232 235 237 238 239 241 243 244 246 248 250 251 253 255 256 259 262 264 265 266 267 268 270 271 273 275 276 276 277 278 279 279 279 280
227 226 226 226 228 229 228 229 233 234 234 234 236 237 240 242 245 246 248 250 253 254 255 257 259 261 263 265 266 268 269 270 271 274 275 275 276 276 277 277 277 277 278
225 224 226 228 229 229 229 229 231 232 233 235 239 239 239 242 244 247 250 253 255 257 257 258 259 261 263 264 267 269 270 271 271 272 272 274 274 274 275 275 275 275 276
224 223 223 225 226 229 230 230 229 232 231 233 236 239 241 243 246 249 252 254 257 259 259 260 261 261 263 265 268 269 271 272 273 272 272 273 273 274 274 273 273 275 276
221 220 223 225 227 228 229 229 231 234 235 236 239 241 242 243 247 250 252 256 260 262 262 263 264 264 266 267 268 270 272 274 274 273 273 271 271 272 272 271 272 274 275
222 223 227 228 229 229 231 235 236 238 239 239 241 242 244 246 248 252 256 257 260 263 265 266 265 265 267 268 268 269 271 273 273 273 272 270 270 271 271 270 271 271 272
Height
5862 5865 5867 5869 5871 5873 5875 5876 5878 5879 5880 5881 5881 5882 5883 5883 5884 5884 5884 5884 5884 5883 5883 5883 5883 5882 5882 5882 5882 5881 5881 5881 5880 5880 5879 5879 5878 5877 5877 5876 5875 5874 5873
5858 5860 5863 5865 5868 5870 5872 5873 5875 5876 5878 5879 5880 5880 5881 5882 5882 5883 5883 5883 5883 5882 5882 5882 5882 5882 5882 5881 5881 5881 5880 5880 5880 5879 5879 5878 5878 5877 5876 5875 5874 5873 5872
5853 5856 5859 5861 5864 5866 5868 5870 5872 5874 5875 5876 5877 5878 5879 5880 5880 5881 5881 5881 5881 5881 5881 5881 5881 5881 5881 5880 5880 5880 5879 5879 5879 5878 5878 5877 5877 5876 5875 5874 5873 5872 5870
5847 5851 5853 5856 5859 5862 5864 5866 5868 5870 5872 5873 5875 5876 5877 5877 5878 5879 5879 5879 5879 5879 5879 5879 5879 5879 5879 5879 5879 5878 5878 5878 5877 5877 5877 5876 5875 5875 5874 5873 5872 5870 5869
5842 5845 5848 5851 5854 5857 5860 5862 5865 5866 5868 5870 5872 5873 5874 5875 5876 5876 5877 5877 5877 5877 5877 5878 5878 5878 5878 5878 5877 5877 5877 5876 5876 5876 5875 5875 5874 5873 5872 5871 5870 5869 5867
5836 5839 5843 5846 5849 5852 5855 5858 5860 5862 5864 5866 5868 5870 5871 5872 5873 5873 5874 5875 5875 5875 5875 5875 5876 5876 5876 5876 5876 5875 5875 5875 5874 5874 5873 5873 5872 5871 5870 5869 5868 5867 5865
5829 5833 5837 5840 5843 5846 5849 5852 5855 5858 5860 5862 5864 5866 5867 5868 5869 5870 5871 5872 5872 5872 5873 5873 5873 5873 5874 5873 5873 5873 5873 5872 5872 5872 5871 5871 5870 5869 5868 5867 5866 5864 5863
5822 5826 5830 5834 5837 5840 5843 5847 5850 5853 5855 5858 5860 5861 5863 5865 5866 5866 5867 5868 5869 5869 5870 5870 5870 5871 5871 5871 5870 5870 5870 5870 5870 5869 5869 5868 5867 5866 5865 5864 5863 5861 5860
5814 5818 5822 5826 5830 5834 5837 5840 5844 5847 5850 5852 5855 5857 5859 5860 5862 5863 5864 5865 5865 5866 5866 5867 5867 5867 5867 5867 5867 5867 5867 5867 5867 5866 5866 5865 5864 5863 5862 5861 5860 5858 5857
5806 5810 5815 5819 5823 5827 5830 5834 5837 5841 5844 5847 5849 5852 5854 5856 5857 5858 5859 5860 5861 5862 5862 5863 5863 5863 5864 5864 5864 5864 5863 5863 5863 5863 5862 5861 5861 5860 5859 5857 5856 5855 5853
5797 5802 5807 5811 5816 5819 5823 5827 5830 5834 5837 5841 5844 5846 5849 5851 5852 5854 5855 5856 5857 5858 5858 5859 5859 5859 5860 5860 5860 5860 5860 5859 5859 5859 5858 5857 5857 5856 5855 5853 5852 5851 5849
5789 5794 5799 5803 5807 5811 5816 5819 5823 5827 5831 5834 5837 5840 5843 5845 5847 5849 5850 5851 5852 5853 5854 5854 5855 5855 5855 5855 5855 5855 5855 5855 5855 5854 5854 5853 5852 5851 5850 5849 5848 5846 5844
5780 5784 5789 5794 5799 5803 5807 5812 5816 5820 5824 5827 5830 5834 5836 5839 5841 5843 5845 5846 5847 5848 5849 5849 5850 5850 5850 5850 5850 5850 5850 5850 5850 5849 5849 5848 5847 5846 5845 5844 5843 5841 5840
5770 5775 5780 5785 5790 5795 5799 5803 5808 5812 5816 5820 5823 5826 5830 5832 5835 5837 5839 5840 5841 5842 5843 5844 5844 5845 5845 5845 5845 5845 5845 5845 5845 5844 5844 5843 5842 5841 5840 5839 5837 5836 5834
5761 5765 5770 5776 5781 5786 5790 5795 5800 5804 5808 5812 5815 5819 5822 5825 5828 5830 5832 5834 5835 5836 5837 5838 5838 5839 5839 5839 5839 5839 5839 5839 5839 5838 5838 5837 5836 5835 5834 5833 5831 5830 5828
5751 5755 5761 5766 5772 5777 5781 5786 5791 5796 5800 5804 5808 5811 5814 5817 5820 5823 5825 5827 5828 5829 5830 5831 5832 5832 5833 5833 5833 5833 5833 5833 5832 5832 5831 5831 5830 5829 5828 5826 5825 5824 5822
5740 5746 5751 5756 5762 5767 5772 5777 5782 5787 5792 5796 5800 5803 5806 5809 5812 5815 5817 5819 5821 5822 5823 5824 5825 5826 5826 5826 5826 5826 5826 5826 5826 5825 5824 5824 5823 5822 5821 5819 5818 5817 5816
5730 5736 5742 5748 5753 5758 5763 5768 5773 5778 5783 5787 5791 5794 5798 5801 5804 5807 5810 5812 5813 5814 5815 5817 5818 5818 5819 5819 5819 5819 5819 5818 5818 5818 5817 5816 5815 5814 5813 5812 5811 5810 5808
5721 5727 5733 5739 5744 5750 5755 5760 5765 5769 5774 5779 5783 5786 5789 5793 5796 5799 5801 5803 5805 5806 5807 5809 5810 5810 5811 5811 5811 5811 5811 5811 5810 5810 5809 5808 5807 5807 5806 5805 5803 5802 5801
5713 5718 5723 5729 5735 5741 5747 5752 5756 5761 5766 5770 5774 5778 5781 5784 5787 5790 5793 5794 5796 5797 5799 5800 5801 5802 5802 5802 5802 5802 5802 5802 5802 5801 5801 5800 5799 5798 5797 5796 5795 5793 5792
5704 5710 5715 5721 5727 5733 5738 5744 5748 5753 5757 5762 5766 5769 5772 5775 5778 5781 5783 5785 5787 5789 5790 5791 5791 5792 5793 5793 5793 5793 5793 5793 5793 5792 5792 5791 5790 5789 5788 5787 5785 5784 5783
5697 5702 5707 5713 5719 5725 5731 5736 5741 5745 5749 5753 5757 5760 5763 5767 5769 5772 5774 5776 5778 5779 5780 5781 5782 5782 5783 5783 5783 5782 5783 5784 5784 5783 5782 5781 5780 5779 5778 5776 5775 5774 5773
5691 5696 5701 5706 5712 5718 5722 5727 5733 5736 5740 5745 5748 5752 5755 5759 5761 5763 5765 5767 5768 5769 5771 5771 5772 5772 5773 5773 5772 5772 5771 5772 5772 5773 5771 5770 5768 5767 5767 5766 5765 5763 5762
5687 5691 5695 5700 5705 5710 5716 5721 5725 5730 5734 5738 5741 5744 5747 5750 5753 5755 5756 5757 5759 5760 5760 5761 5761 5761 5761 5762 5762 5761 5760 5759 5758 5759 5759 5758 5756 5755 5754 5754 5753 5752 5752
5683 5687 5691 5696 5700 5704 5709 5714 5718 5722 5726 5730 5733 5736 5739 5741 5743 5745 5746 5747 5748 5749 5750 5750 5750 5750 5750 5750 5750 5749 5748 5747 5745 5744 5744 5744 5743 5743 5742 5742 5741 5741 5741
5680 5684 5687 5691 5695 5699 5703 5707 5712 5716 5719 5722 5725 5728 5730 5732 5734 5735 5736 5737 5738 5738 5739 5738 5738 5738 5738 5737 5736 5736 5735 5734 5733 5731 5731 5731 5731 5731 5730 5730 5729 5729 5729